When you browse on this site, cookies collect data to enhance your experience and personalize the content and advertising you see.
Visit our Privacy Policy to learn more. By continuing to use the site, you agree to this use of cookies and data.
  • In Portugal
  • List of Countries
  • For 7 days
  • Water Temperature
  • Weather Map
  • Weather Widgets
  • user-avatar
    Login

    Hourly Weather Eger

    Today, 22 September, Sunday

    Time Temperature Precipitation Wind Pressure Humidity
    00:00 +10°C° 0 mm 0 mps 750 mmHg 56%
    01:00 +10°C° 0 mm 0 mps 750 mmHg 58%
    02:00 +9°C° 0 mm 0 mps 750 mmHg 59%
    03:00 +9°C° 0 mm 0 mps 750 mmHg 60%
    04:00 +9°C° 0 mm 0 mps 749 mmHg 61%
    05:00 +10°C° 0 mm 0 mps 749 mmHg 59%
    06:00 +10°C° 0 mm 0 mps 749 mmHg 57%
    07:00 +11°C° 0 mm 0 mps 749 mmHg 55%
    08:00 +14°C° 0 mm 1 mps 749 mmHg 48%
    09:00 +16°C° 0 mm 1 mps 749 mmHg 42%
    10:00 +18°C° 0 mm 2 mps 749 mmHg 36%
    11:00 +19°C° 0 mm 2 mps 748 mmHg 34%
    12:00 +20°C° 0 mm 2 mps 748 mmHg 32%
    13:00 +21°C° 0 mm 2 mps 747 mmHg 30%
    14:00 +21°C° 0 mm 2 mps 746 mmHg 30%
    15:00 +21°C° 0 mm 2 mps 746 mmHg 31%
    16:00 +21°C° 0 mm 2 mps 745 mmHg 32%
    17:00 +20°C° 0 mm 1 mps 745 mmHg 36%
    18:00 +18°C° 0 mm 1 mps 745 mmHg 40%
    19:00 +15°C° 0 mm 1 mps 745 mmHg 44%
    20:00 +15°C° 0 mm 1 mps 745 mmHg 44%
    21:00 +14°C° 0 mm 1 mps 745 mmHg 45%
    22:00 +14°C° 0 mm 2 mps 745 mmHg 46%
    23:00 +14°C° 0 mm 2 mps 745 mmHg 47%

    Tomorrow, 23 September, Monday

    Time Temperature Precipitation Wind Pressure Humidity
    00:00 +14°C° 0 mm 2 mps 744 mmHg 47%
    01:00 +14°C° 0 mm 2 mps 744 mmHg 48%
    02:00 +14°C° 0 mm 1 mps 744 mmHg 49%
    03:00 +14°C° 0 mm 1 mps 744 mmHg 49%
    04:00 +14°C° 0 mm 1 mps 743 mmHg 50%
    05:00 +13°C° 0.6 mm 1 mps 743 mmHg 57%
    06:00 +13°C° 0.6 mm 1 mps 743 mmHg 65%
    07:00 +12°C° 0.6 mm 1 mps 743 mmHg 73%
    08:00 +13°C° 1 mm 1 mps 744 mmHg 76%
    09:00 +13°C° 1 mm 1 mps 744 mmHg 80%
    10:00 +14°C° 1 mm 1 mps 744 mmHg 83%
    11:00 +14°C° 0.2 mm 1 mps 744 mmHg 82%
    12:00 +15°C° 0.2 mm 1 mps 744 mmHg 82%
    13:00 +15°C° 0.2 mm 1 mps 744 mmHg 81%
    14:00 +15°C° 0 mm 1 mps 743 mmHg 83%
    15:00 +15°C° 0 mm 1 mps 743 mmHg 85%
    16:00 +15°C° 0 mm 1 mps 743 mmHg 87%
    17:00 +14°C° 0 mm 1 mps 743 mmHg 89%
    18:00 +12°C° 0 mm 0 mps 743 mmHg 91%
    19:00 +12°C° 0 mm 0 mps 744 mmHg 93%
    20:00 +12°C° 0 mm 0 mps 744 mmHg 92%
    21:00 +13°C° 0 mm 1 mps 744 mmHg 92%
    22:00 +12°C° 0 mm 1 mps 744 mmHg 92%
    23:00 +12°C° 0 mm 1 mps 744 mmHg 90%

    Day after tomorrow, 24 September, Tuesday

    Time Temperature Precipitation Wind Pressure Humidity
    00:00 +12°C° 0 mm 1 mps 743 mmHg 89%
    01:00 +12°C° 0 mm 1 mps 743 mmHg 88%
    02:00 +12°C° 0 mm 1 mps 743 mmHg 86%
    03:00 +12°C° 0 mm 1 mps 743 mmHg 84%
    04:00 +12°C° 0 mm 1 mps 742 mmHg 82%
    05:00 +13°C° 0 mm 1 mps 742 mmHg 79%
    06:00 +13°C° 0 mm 1 mps 742 mmHg 75%
    07:00 +14°C° 0 mm 1 mps 742 mmHg 72%
    08:00 +16°C° 0 mm 1 mps 742 mmHg 65%
    09:00 +18°C° 0 mm 1 mps 742 mmHg 58%
    10:00 +20°C° 0 mm 1 mps 742 mmHg 51%
    11:00 +21°C° 0 mm 1 mps 742 mmHg 46%
    12:00 +23°C° 0 mm 1 mps 742 mmHg 42%
    13:00 +24°C° 0 mm 1 mps 741 mmHg 37%
    14:00 +24°C° 0 mm 1 mps 741 mmHg 39%
    15:00 +24°C° 0 mm 1 mps 741 mmHg 41%
    16:00 +24°C° 0 mm 1 mps 741 mmHg 42%
    17:00 +22°C° 0 mm 1 mps 741 mmHg 47%
    18:00 +20°C° 0 mm 1 mps 741 mmHg 51%
    19:00 +19°C° 0 mm 1 mps 741 mmHg 55%
    20:00 +19°C° 0 mm 1 mps 741 mmHg 56%
    21:00 +18°C° 0 mm 1 mps 741 mmHg 58%
    22:00 +17°C° 0 mm 2 mps 741 mmHg 59%
    23:00 +16°C° 0 mm 2 mps 741 mmHg 63%

    25 September, Wednesday

    Time Temperature Precipitation Wind Pressure Humidity
    00:00 +16°C° 0 mm 2 mps 741 mmHg 67%
    01:00 +16°C° 0 mm 2 mps 741 mmHg 71%
    02:00 +15°C° 0.1 mm 2 mps 741 mmHg 76%
    03:00 +15°C° 0.1 mm 2 mps 741 mmHg 81%
    04:00 +15°C° 0.1 mm 1 mps 741 mmHg 86%
    05:00 +15°C° 0.5 mm 1 mps 741 mmHg 88%
    06:00 +15°C° 0.5 mm 1 mps 740 mmHg 90%
    07:00 +15°C° 0.5 mm 1 mps 740 mmHg 91%
    08:00 +16°C° 0 mm 1 mps 741 mmHg 86%
    09:00 +18°C° 0 mm 1 mps 741 mmHg 81%
    10:00 +18°C° 0 mm 2 mps 741 mmHg 76%
    11:00 +19°C° 0 mm 2 mps 741 mmHg 71%
    12:00 +19°C° 0 mm 2 mps 740 mmHg 67%
    13:00 +20°C° 0 mm 2 mps 740 mmHg 62%
    14:00 +20°C° 0.1 mm 2 mps 740 mmHg 63%
    15:00 +20°C° 0.1 mm 2 mps 740 mmHg 64%
    16:00 +20°C° 0.1 mm 2 mps 739 mmHg 65%
    17:00 +19°C° 0.2 mm 2 mps 740 mmHg 70%
    18:00 +18°C° 0.2 mm 2 mps 740 mmHg 75%
    19:00 +18°C° 0.2 mm 1 mps 740 mmHg 80%
    20:00 +18°C° 0.1 mm 1 mps 740 mmHg 81%
    21:00 +16°C° 0.1 mm 2 mps 740 mmHg 82%
    22:00 +16°C° 0.1 mm 2 mps 741 mmHg 83%
    23:00 +16°C° 0 mm 2 mps 741 mmHg 83%

    26 September, Thursday

    Time Temperature Precipitation Wind Pressure Humidity
    00:00 +16°C° 0 mm 2 mps 741 mmHg 83%
    01:00 +15°C° 0 mm 2 mps 741 mmHg 83%
    02:00 +15°C° 0 mm 2 mps 741 mmHg 83%
    03:00 +15°C° 0 mm 2 mps 741 mmHg 84%
    04:00 +15°C° 0 mm 2 mps 741 mmHg 84%
    05:00 +15°C° 0.5 mm 2 mps 741 mmHg 86%
    06:00 +14°C° 0.5 mm 2 mps 741 mmHg 89%
    07:00 +14°C° 0.5 mm 1 mps 741 mmHg 91%
    08:00 +15°C° 0.1 mm 1 mps 742 mmHg 84%
    09:00 +16°C° 0.1 mm 2 mps 742 mmHg 78%
    10:00 +18°C° 0.1 mm 2 mps 743 mmHg 71%
    11:00 +19°C° 0.4 mm 2 mps 742 mmHg 67%
    12:00 +19°C° 0.4 mm 2 mps 742 mmHg 63%
    13:00 +20°C° 0.4 mm 2 mps 742 mmHg 58%
    14:00 +20°C° 0.7 mm 2 mps 742 mmHg 60%
    15:00 +20°C° 0.7 mm 2 mps 742 mmHg 63%
    16:00 +19°C° 0.7 mm 2 mps 743 mmHg 65%
    17:00 +19°C° 0.1 mm 1 mps 743 mmHg 71%
    18:00 +16°C° 0.1 mm 1 mps 743 mmHg 77%
    19:00 +15°C° 0.1 mm 1 mps 743 mmHg 82%
    20:00 +14°C° 0 mm 1 mps 744 mmHg 84%
    21:00 +14°C° 0 mm 1 mps 744 mmHg 85%
    22:00 +13°C° 0 mm 1 mps 744 mmHg 87%
    23:00 +12°C° 0 mm 0 mps 744 mmHg 87%

    27 September, Friday

    Time Temperature Precipitation Wind Pressure Humidity
    00:00 +12°C° 0 mm 0 mps 744 mmHg 88%
    01:00 +12°C° 0 mm 0 mps 744 mmHg 88%
    02:00 +12°C° 0 mm 0 mps 745 mmHg 88%
    03:00 +11°C° 0 mm 0 mps 745 mmHg 88%
    04:00 +11°C° 0 mm 0 mps 745 mmHg 87%
    05:00 +12°C° 0 mm 0 mps 745 mmHg 85%
    06:00 +13°C° 0 mm 0 mps 745 mmHg 83%
    07:00 +13°C° 0 mm 0 mps 745 mmHg 80%
    08:00 +16°C° 0 mm 1 mps 745 mmHg 74%
    09:00 +18°C° 0 mm 2 mps 746 mmHg 68%
    10:00 +19°C° 0 mm 2 mps 746 mmHg 62%
    11:00 +21°C° 0 mm 3 mps 745 mmHg 57%
    12:00 +22°C° 0 mm 3 mps 745 mmHg 53%
    13:00 +24°C° 0 mm 3 mps 745 mmHg 48%
    14:00 +24°C° 0 mm 3 mps 745 mmHg 50%
    15:00 +23°C° 0 mm 2 mps 745 mmHg 52%
    16:00 +23°C° 0 mm 2 mps 744 mmHg 53%
    17:00 +22°C° 0 mm 1 mps 745 mmHg 55%
    18:00 +20°C° 0 mm 1 mps 745 mmHg 57%
    19:00 +19°C° 0 mm 1 mps 745 mmHg 60%
    20:00 +19°C° 0 mm 1 mps 745 mmHg 60%
    21:00 +18°C° 0 mm 1 mps 745 mmHg 61%
    22:00 +18°C° 0 mm 1 mps 745 mmHg 61%
    23:00 +18°C° 0 mm 1 mps 745 mmHg 62%
    Show more